User: anonymous   Login
Location: D�derode
(51.8092°N, 10.1065°E)
Time: 20:59:35
(UTC+00:00)
Language:

Cosmos 1805 Rocket - Orbit

View from above orbital plane
View from above orbital plane
View from above satellite
View from above satellite

Ground track
Ground track

The orbit data is extracted from the following two-line orbital elements,

1 17192U 86097B   21055.28522236  .00000101  00000-0  93716-5 0  9996
2 17192  82.5035  71.1186 0016451 342.6081  28.1110 14.83633747827466
Epoch (UTC): 24 February 2021 06:50:43
Eccentricity: 0.0016451
inclination: 82.5035°
perigee height: 606 km
apogee height: 629 km
right ascension of ascending node: 71.1186°
argument of perigee: 342.6081°
revolutions per day: 14.83633747
mean anomaly at epoch: 28.1110°
orbit number at epoch: 82746

The dashed part of the orbit path shows where the satellite is in the earth's shadow,  

DLR